| time (UTC) | temp C | wind direction | speed KPH | gust KPH | rain 1hr cm | rain 24hr cm | rain mn cm | humidity % | barometer mb |
| 20260504235011 | 21 | 6 | 4.8 | 12.9 | 0.00 | 0.00 | 0.00 | 35 | 1009.4 |
| 20260504234531 | 22 | 275 | 3.2 | 12.9 | 0.00 | 0.00 | 0.00 | 32 | 1009.4 |
| 20260504234014 | 22 | 80 | 3.2 | 11.3 | 0.00 | 0.00 | 0.00 | 32 | 1009.5 |
| 20260504233510 | 22 | 124 | 4.8 | 12.9 | 0.00 | 0.00 | 0.00 | 34 | 1009.4 |
| 20260504233030 | 22 | 301 | 3.2 | 12.9 | 0.00 | 0.00 | 0.00 | 32 | 1009.4 |
| 20260504232511 | 22 | 237 | 6.4 | 12.9 | 0.00 | 0.00 | 0.00 | 36 | 1009.5 |
| 20260504232010 | 22 | 0 | 3.2 | 12.9 | 0.00 | 0.00 | 0.00 | 30 | 1009.4 |
| 20260504231529 | 22 | 146 | 1.6 | 12.9 | 0.00 | 0.00 | 0.00 | 38 | 1009.5 |
| 20260504231014 | 22 | 103 | 3.2 | 12.9 | 0.00 | 0.00 | 0.00 | 31 | 1009.6 |
| 20260504230511 | 22 | 127 | 3.2 | 9.7 | 0.00 | 0.00 | 0.00 | 31 | 1009.6 |
| 20260504230030 | 22 | 0 | 3.2 | 12.9 | 0.00 | 0.00 | 0.00 | 32 | 1009.7 |
| 20260504225511 | 22 | 259 | 4.8 | 12.9 | 0.00 | 0.00 | 0.00 | 31 | 1009.7 |
| 20260504225010 | 21 | 0 | 0.0 | 11.3 | 0.00 | 0.00 | 0.00 | 32 | 1009.7 |
| 20260504224537 | 21 | 117 | 3.2 | 12.9 | 0.00 | 0.00 | 0.00 | 32 | 1009.8 |
| 20260504224010 | 22 | 101 | 3.2 | 12.9 | 0.00 | 0.00 | 0.00 | 29 | 1009.8 |
| 20260504223513 | 21 | 1 | 6.4 | 17.7 | 0.00 | 0.00 | 0.00 | 32 | 1009.9 |
| 20260504223029 | 21 | 111 | 4.8 | 17.7 | 0.00 | 0.00 | 0.00 | 33 | 1009.8 |
| 20260504222509 | 22 | 37 | 6.4 | 17.7 | 0.00 | 0.00 | 0.00 | 31 | 1009.8 |
| 20260504222010 | 21 | 288 | 4.8 | 14.5 | 0.00 | 0.00 | 0.00 | 32 | 1009.9 |
| 20260504221527 | 22 | 110 | 3.2 | 17.7 | 0.00 | 0.00 | 0.00 | 36 | 1009.9 |
| 20260504221009 | 21 | 110 | 8.0 | 24.1 | 0.00 | 0.00 | 0.00 | 30 | 1010.0 |
| 20260504220513 | 22 | 71 | 6.4 | 24.1 | 0.00 | 0.00 | 0.00 | 30 | 1010.0 |
| 20260504220028 | 22 | 123 | 3.2 | 12.9 | 0.00 | 0.00 | 0.00 | 32 | 1009.9 |
| 20260504215511 | 21 | 127 | 3.2 | 11.3 | 0.00 | 0.00 | 0.00 | 34 | 1010.0 |
| 20260504215011 | 21 | 281 | 3.2 | 11.3 | 0.00 | 0.00 | 0.00 | 35 | 1010.1 |
| 20260504214530 | 21 | 153 | 4.8 | 20.9 | 0.00 | 0.00 | 0.00 | 35 | 1010.1 |
| 20260504214009 | 21 | 103 | 8.0 | 20.9 | 0.00 | 0.00 | 0.00 | 34 | 1010.1 |
| 20260504213514 | 21 | 77 | 1.6 | 14.5 | 0.00 | 0.00 | 0.00 | 34 | 1010.1 |
| 20260504213030 | 21 | 274 | 1.6 | 14.5 | 0.00 | 0.00 | 0.00 | 32 | 1010.1 |
| 20260504212510 | 21 | 167 | 4.8 | 14.5 | 0.00 | 0.00 | 0.00 | 31 | 1010.2 |
| 20260504212013 | 21 | 98 | 8.0 | 14.5 | 0.00 | 0.00 | 0.00 | 36 | 1010.3 |
| 20260504211534 | 21 | 159 | 3.2 | 11.3 | 0.00 | 0.00 | 0.00 | 36 | 1010.2 |
| 20260504211008 | 21 | 304 | 4.8 | 12.9 | 0.00 | 0.00 | 0.00 | 33 | 1010.2 |
| 20260504210509 | 21 | 122 | 6.4 | 12.9 | 0.00 | 0.00 | 0.00 | 31 | 1010.2 |
| 20260504210036 | 21 | 173 | 3.2 | 12.9 | 0.00 | 0.00 | 0.00 | 33 | 1010.3 |
| 20260504205509 | 21 | 150 | 4.8 | 16.1 | 0.00 | 0.00 | 0.00 | 35 | 1010.4 |
| 20260504205010 | 21 | 96 | 6.4 | 16.1 | 0.00 | 0.00 | 0.00 | 34 | 1010.4 |
| 20260504204537 | 20 | 121 | 6.4 | 12.9 | 0.00 | 0.00 | 0.00 | 36 | 1010.4 |
| 20260504204009 | 20 | 145 | 4.8 | 12.9 | 0.00 | 0.00 | 0.00 | 35 | 1010.4 |
| 20260504203509 | 21 | 102 | 4.8 | 12.9 | 0.00 | 0.00 | 0.00 | 34 | 1010.4 |
| 20260504203031 | 20 | 137 | 6.4 | 12.9 | 0.00 | 0.00 | 0.00 | 42 | 1010.4 |
| 20260504202510 | 20 | 113 | 3.2 | 19.3 | 0.00 | 0.00 | 0.00 | 34 | 1010.4 |
| 20260504202012 | 20 | 141 | 6.4 | 19.3 | 0.00 | 0.00 | 0.00 | 36 | 1010.5 |
| 20260504201530 | 20 | 110 | 4.8 | 17.7 | 0.00 | 0.00 | 0.00 | 35 | 1010.5 |
| 20260504201009 | 20 | 105 | 9.7 | 20.9 | 0.00 | 0.00 | 0.00 | 34 | 1010.5 |
| 20260504200509 | 20 | 109 | 6.4 | 20.9 | 0.00 | 0.00 | 0.00 | 34 | 1010.5 |
| 20260504200030 | 20 | 121 | 8.0 | 16.1 | 0.00 | 0.00 | 0.00 | 38 | 1010.6 |
| 20260504195509 | 20 | 155 | 9.7 | 16.1 | 0.00 | 0.00 | 0.00 | 37 | 1010.5 |
| 20260504195011 | 20 | 116 | 4.8 | 20.9 | 0.00 | 0.00 | 0.00 | 44 | 1010.7 |
| 20260504194529 | 20 | 155 | 9.7 | 20.9 | 0.00 | 0.00 | 0.00 | 37 | 1010.6 |
| 20260504194010 | 19 | 144 | 3.2 | 12.9 | 0.00 | 0.00 | 0.00 | 38 | 1010.8 |
| 20260504193511 | 20 | 82 | 9.7 | 17.7 | 0.00 | 0.00 | 0.00 | 36 | 1010.7 |
| 20260504193030 | 20 | 259 | 3.2 | 17.7 | 0.00 | 0.00 | 0.00 | 36 | 1010.8 |
| 20260504192508 | 19 | 131 | 1.6 | 16.1 | 0.00 | 0.00 | 0.00 | 34 | 1010.8 |
| 20260504192010 | 19 | 112 | 9.7 | 16.1 | 0.00 | 0.00 | 0.00 | 39 | 1010.8 |
| 20260504191532 | 19 | 80 | 1.6 | 14.5 | 0.00 | 0.00 | 0.00 | 41 | 1010.9 |
| 20260504191011 | 19 | 117 | 3.2 | 14.5 | 0.00 | 0.00 | 0.00 | 35 | 1011.0 |
| 20260504190513 | 19 | 184 | 3.2 | 14.5 | 0.00 | 0.00 | 0.00 | 35 | 1010.9 |
| 20260504190030 | 19 | 110 | 6.4 | 14.5 | 0.00 | 0.00 | 0.00 | 37 | 1011.0 |
| 20260504185508 | 19 | 109 | 4.8 | 14.5 | 0.00 | 0.00 | 0.00 | 40 | 1011.0 |
| 20260504185009 | 18 | 150 | 4.8 | 19.3 | 0.00 | 0.00 | 0.00 | 38 | 1011.0 |
| 20260504184528 | 18 | 98 | 8.0 | 19.3 | 0.00 | 0.00 | 0.00 | 38 | 1011.0 |
| 20260504184009 | 18 | 126 | 8.0 | 19.3 | 0.00 | 0.00 | 0.00 | 42 | 1011.0 |
| 20260504183512 | 18 | 81 | 6.4 | 20.9 | 0.00 | 0.00 | 0.00 | 38 | 1011.2 |
| 20260504183030 | 18 | 155 | 4.8 | 20.9 | 0.00 | 0.00 | 0.00 | 39 | 1011.1 |
| 20260504182513 | 18 | 145 | 6.4 | 20.9 | 0.00 | 0.00 | 0.00 | 35 | 1011.1 |
| 20260504182011 | 18 | 236 | 6.4 | 16.1 | 0.00 | 0.00 | 0.00 | 37 | 1011.2 |
| 20260504181529 | 18 | 119 | 6.4 | 16.1 | 0.00 | 0.00 | 0.00 | 34 | 1011.3 |
| 20260504181011 | 18 | 77 | 8.0 | 19.3 | 0.00 | 0.00 | 0.00 | 36 | 1011.3 |
| 20260504180510 | 18 | 167 | 8.0 | 19.3 | 0.00 | 0.00 | 0.00 | 38 | 1011.3 |
| 20260504180030 | 18 | 314 | 1.6 | 12.9 | 0.00 | 0.00 | 0.00 | 35 | 1011.4 |
| 20260504175511 | 18 | 172 | 3.2 | 12.9 | 0.00 | 0.00 | 0.00 | 36 | 1011.3 |
| 20260504175009 | 18 | 226 | 3.2 | 11.3 | 0.00 | 0.00 | 0.00 | 40 | 1011.4 |
| 20260504174528 | 17 | 310 | 4.8 | 11.3 | 0.00 | 0.00 | 0.00 | 36 | 1011.3 |
| 20260504174009 | 17 | 342 | 3.2 | 12.9 | 0.00 | 0.00 | 0.00 | 38 | 1011.4 |
| 20260504173511 | 17 | 152 | 4.8 | 20.9 | 0.00 | 0.00 | 0.00 | 41 | 1011.4 |
| 20260504173029 | 17 | 290 | 3.2 | 20.9 | 0.00 | 0.00 | 0.00 | 37 | 1011.5 |
| 20260504172512 | 17 | 296 | 6.4 | 20.9 | 0.00 | 0.00 | 0.00 | 39 | 1011.6 |
| 20260504172010 | 17 | 21 | 8.0 | 14.5 | 0.00 | 0.00 | 0.00 | 39 | 1011.5 |
| 20260504171528 | 17 | 166 | 4.8 | 14.5 | 0.00 | 0.00 | 0.00 | 39 | 1011.5 |
| 20260504171010 | 17 | 91 | 4.8 | 17.7 | 0.00 | 0.00 | 0.00 | 39 | 1011.5 |
| 20260504170518 | 17 | 335 | 4.8 | 19.3 | 0.00 | 0.00 | 0.00 | 38 | 1011.5 |
| 20260504151007 | 11 | 124 | 4.8 | 6.4 | 0.00 | 0.00 | 0.00 | 65 | 1012.0 |
| 20260504150510 | 11 | 64 | 4.8 | 6.4 | 0.00 | 0.00 | 0.00 | 67 | 1012.0 |
| 20260504141012 | 8 | 0 | 0.0 | 0.0 | 0.00 | 0.00 | 0.00 | 79 | 1011.6 |
| 20260504140510 | 8 | 0 | 0.0 | 0.0 | 0.00 | 0.00 | 0.00 | 79 | 1011.5 |
| 20260504130509 | 6 | 0 | 0.0 | 0.0 | 0.00 | 0.00 | 0.00 | 77 | 1010.8 |
| 20260504110509 | 6 | 0 | 0.0 | 4.8 | 0.00 | 0.00 | 0.00 | 76 | 1010.1 |
| 20260504100510 | 7 | 0 | 0.0 | 0.0 | 0.00 | 0.00 | 0.00 | 78 | 1009.8 |
| 20260504081531 | 7 | 0 | 0.0 | 0.0 | 0.00 | 0.00 | 0.00 | 73 | 1009.1 |
| 20260504081013 | 7 | 0 | 0.0 | 0.0 | 0.00 | 0.00 | 0.00 | 73 | 1009.1 |
| 20260504080510 | 8 | 0 | 0.0 | 0.0 | 0.00 | 0.00 | 0.00 | 73 | 1009.0 |
| 20260504050511 | 11 | 0 | 1.6 | 6.4 | 0.00 | 0.00 | 0.00 | 67 | 1008.8 |
| 20260504045510 | 11 | 0 | 0.0 | 3.2 | 0.00 | 0.00 | 0.00 | 63 | 1008.8 |
| 20260504045010 | 11 | 0 | 0.0 | 8.0 | 0.00 | 0.00 | 0.00 | 63 | 1008.7 |
| 20260504044529 | 11 | 0 | 3.2 | 8.0 | 0.00 | 0.00 | 0.00 | 64 | 1008.7 |
| 20260504044010 | 11 | 264 | 0.0 | 6.4 | 0.00 | 0.00 | 0.00 | 67 | 1008.7 |
| 20260504043510 | 12 | 266 | 1.6 | 4.8 | 0.00 | 0.00 | 0.00 | 63 | 1008.6 |
| 20260504043029 | 11 | 0 | 0.0 | 3.2 | 0.00 | 0.00 | 0.00 | 69 | 1008.6 |
| 20260504042510 | 12 | 0 | 0.0 | 3.2 | 0.00 | 0.00 | 0.00 | 67 | 1008.6 |
| 20260504042011 | 12 | 0 | 0.0 | 4.8 | 0.00 | 0.00 | 0.00 | 64 | 1008.6 |
| 20260504041539 | 12 | 0 | 0.0 | 6.4 | 0.00 | 0.00 | 0.00 | 62 | 1008.6 |
| 20260504041008 | 12 | 355 | 1.6 | 6.4 | 0.00 | 0.00 | 0.00 | 62 | 1008.6 |
| 20260504040510 | 13 | 285 | 3.2 | 6.4 | 0.00 | 0.00 | 0.00 | 60 | 1008.6 |
| 20260504040032 | 13 | 295 | 4.8 | 6.4 | 0.00 | 0.00 | 0.00 | 59 | 1008.6 |
| 20260504035511 | 13 | 293 | 3.2 | 6.4 | 0.00 | 0.00 | 0.00 | 58 | 1008.7 |
| 20260504035011 | 13 | 1 | 3.2 | 6.4 | 0.00 | 0.00 | 0.00 | 56 | 1008.6 |
| 20260504034533 | 13 | 295 | 1.6 | 3.2 | 0.00 | 0.00 | 0.00 | 60 | 1008.6 |
| 20260504034010 | 13 | 0 | 0.0 | 3.2 | 0.00 | 0.00 | 0.00 | 58 | 1008.6 |
| 20260504033509 | 14 | 0 | 0.0 | 0.0 | 0.00 | 0.00 | 0.00 | 55 | 1008.5 |
| 20260504033031 | 14 | 0 | 0.0 | 0.0 | 0.00 | 0.00 | 0.00 | 58 | 1008.3 |
| 20260504032515 | 14 | 0 | 0.0 | 0.0 | 0.00 | 0.00 | 0.00 | 56 | 1008.3 |
| 20260504032011 | 13 | 0 | 0.0 | 0.0 | 0.00 | 0.00 | 0.00 | 60 | 1008.2 |
| 20260504031533 | 14 | 0 | 0.0 | 0.0 | 0.00 | 0.00 | 0.00 | 61 | 1008.1 |
| 20260504031010 | 14 | 0 | 0.0 | 0.0 | 0.00 | 0.00 | 0.00 | 60 | 1008.0 |
| 20260504030509 | 14 | 0 | 0.0 | 0.0 | 0.00 | 0.00 | 0.00 | 58 | 1008.1 |
| 20260504030034 | 15 | 0 | 0.0 | 1.6 | 0.00 | 0.00 | 0.00 | 60 | 1008.0 |
| 20260504025509 | 15 | 0 | 0.0 | 3.2 | 0.00 | 0.00 | 0.00 | 57 | 1008.0 |
| 20260504025010 | 15 | 282 | 1.6 | 6.4 | 0.00 | 0.00 | 0.00 | 59 | 1008.0 |
| 20260504024531 | 15 | 273 | 3.2 | 6.4 | 0.00 | 0.00 | 0.00 | 55 | 1007.8 |
| 20260504024010 | 16 | 281 | 3.2 | 4.8 | 0.00 | 0.00 | 0.00 | 56 | 1007.9 |
| 20260504023509 | 16 | 283 | 3.2 | 3.2 | 0.00 | 0.00 | 0.00 | 55 | 1007.9 |
| 20260504023030 | 16 | 0 | 0.0 | 3.2 | 0.00 | 0.00 | 0.00 | 54 | 1007.9 |
| 20260504022511 | 16 | 0 | 0.0 | 4.8 | 0.00 | 0.00 | 0.00 | 53 | 1008.0 |
| 20260504022009 | 16 | 275 | 1.6 | 4.8 | 0.00 | 0.00 | 0.00 | 55 | 1007.9 |
| 20260504021530 | 17 | 0 | 0.0 | 0.0 | 0.00 | 0.00 | 0.00 | 52 | 1007.9 |
| 20260504021012 | 17 | 0 | 0.0 | 0.0 | 0.00 | 0.00 | 0.00 | 51 | 1007.9 |
| 20260504020510 | 17 | 0 | 0.0 | 0.0 | 0.00 | 0.00 | 0.00 | 50 | 1008.0 |
| 20260504020036 | 17 | 0 | 0.0 | 0.0 | 0.00 | 0.00 | 0.00 | 53 | 1008.0 |
| 20260504015509 | 17 | 0 | 0.0 | 0.0 | 0.00 | 0.00 | 0.00 | 52 | 1007.9 |
| 20260504015010 | 18 | 0 | 0.0 | 0.0 | 0.00 | 0.00 | 0.00 | 47 | 1008.0 |
| 20260504014532 | 18 | 0 | 0.0 | 0.0 | 0.00 | 0.00 | 0.00 | 50 | 1008.0 |
| 20260504014010 | 18 | 0 | 0.0 | 0.0 | 0.00 | 0.00 | 0.00 | 45 | 1008.0 |
| 20260504013513 | 18 | 0 | 0.0 | 0.0 | 0.00 | 0.00 | 0.00 | 48 | 1008.0 |
| 20260504013032 | 18 | 0 | 0.0 | 0.0 | 0.00 | 0.00 | 0.00 | 46 | 1008.0 |
| 20260504012511 | 19 | 0 | 0.0 | 0.0 | 0.00 | 0.00 | 0.00 | 49 | 1008.1 |
| 20260504012011 | 20 | 0 | 0.0 | 1.6 | 0.00 | 0.00 | 0.00 | 41 | 1008.1 |
| 20260504011530 | 21 | 0 | 0.0 | 4.8 | 0.00 | 0.00 | 0.00 | 38 | 1008.1 |
| 20260504011010 | 21 | 352 | 3.2 | 4.8 | 0.00 | 0.00 | 0.00 | 43 | 1008.1 |
| 20260504010511 | 22 | 0 | 0.0 | 6.4 | 0.00 | 0.00 | 0.00 | 45 | 1008.2 |
| 20260504010029 | 23 | 321 | 0.0 | 6.4 | 0.00 | 0.00 | 0.00 | 30 | 1008.2 |
| 20260504005510 | 23 | 252 | 0.0 | 6.4 | 0.00 | 0.00 | 0.00 | 32 | 1008.2 |
| 20260504005011 | 23 | 0 | 1.6 | 6.4 | 0.00 | 0.00 | 0.00 | 30 | 1008.3 |
| 20260504004528 | 23 | 181 | 3.2 | 8.0 | 0.00 | 0.00 | 0.00 | 30 | 1008.3 |
| 20260504004010 | 23 | 290 | 1.6 | 8.0 | 0.00 | 0.00 | 0.00 | 30 | 1008.3 |
| 20260504003510 | 24 | 0 | 0.0 | 8.0 | 0.00 | 0.00 | 0.00 | 27 | 1008.4 |
| 20260504003028 | 24 | 213 | 1.6 | 8.0 | 0.00 | 0.00 | 0.00 | 30 | 1008.6 |
| 20260504002510 | 24 | 248 | 3.2 | 9.7 | 0.00 | 0.00 | 0.00 | 30 | 1008.5 |
| 20260504002008 | 24 | 0 | 3.2 | 9.7 | 0.00 | 0.00 | 0.00 | 29 | 1008.6 |
| 20260504001536 | 24 | 261 | 1.6 | 12.9 | 0.00 | 0.00 | 0.00 | 29 | 1008.6 |
| 20260504001008 | 24 | 168 | 4.8 | 12.9 | 0.00 | 0.00 | 0.00 | 31 | 1008.6 |
| 20260504000509 | 24 | 141 | 3.2 | 12.9 | 0.00 | 0.00 | 0.00 | 30 | 1008.6 |
| 20260504000030 | 24 | 290 | 3.2 | 14.5 | 0.00 | 0.00 | 0.00 | 30 | 1008.7 |
| 20260503235509 | 23 | 200 | 9.7 | 14.5 | 0.00 | 0.00 | 0.00 | 32 | 1008.6 |